Flag for Hungary Weather past 2 weeks in Miskolc, Hungary

Now
69 °F

Passing clouds.


Feels Like: 69 °F
Forecast: 58 / 71 °F
Wind: 1 mph from Southwest

Location: Miskolc

Current Time: Sep 4, 2015 at 11:06:17 PM

Latest Report: Sep 4, 2015 at 8:00 PM


Visibility: 22 mi

Pressure: 29.90 "Hg

Humidity: 60%

Dew point: 55 °F

Location of MiskolcLocation

Historic Weather in Miskolc — Graph

°F

Miskolc temperature yesterday

Maximum temperature yesterday: 83 °F (at 5:00 PM)
Minimum temperature yesterday: 60 °F (at 7:00 AM)
Average temperature yesterday: 72 °F

Past Weeks' High & Low Weather Summary

 TemperatureHumidityPressure
High94 °F (Sep 1, 3:00 PM)87% (Aug 21, 3:00 AM)30.23 "Hg (Aug 21, 3:00 AM)
Low52 °F (Aug 21, 5:00 AM)29% (Sep 1, 12:00 PM)29.78 "Hg (Sep 2, 5:00 PM)
Average72 °F60%30.03 "Hg
* Reported Aug 20 8:00 PM — Sep 4 8:00 PM, Miskolc, Weather by CustomWeather, © 2015

Note: Actual official high and low records may vary slightly from our data, if they occured in-between our weather recording intervals... More about our weather records

Advertising

Miskolc weather history for previous 24 hours

 ConditionsComfort  
Time TempWeatherWind HumidityBarometerVisibility
8:00 PM
Fri, Sep 4
69 °FPassing clouds.1 mph60%29.90 "Hg22 mi
7:00 PM74 °FPassing clouds.1 mph46%29.89 "Hg25 mi
6:00 PM77 °FPassing clouds.3 mph42%29.88 "Hg25 mi
5:00 PM80 °FPassing clouds.2 mph40%29.87 "Hg25 mi
4:00 PM81 °FPassing clouds.3 mph38%29.88 "Hg25 mi
3:00 PM81 °FPassing clouds.3 mph37%29.88 "Hg22 mi
2:00 PM78 °FPassing clouds.3 mph44%29.88 "Hg22 mi
1:00 PM77 °FPassing clouds.2 mph55%29.88 "Hg22 mi
12:00 PM74 °FPartly sunny.1 mph64%29.88 "Hg19 mi
11:00 AM71 °FLight rain. Overcast.No wind69%29.89 "Hg16 mi
10:00 AM70 °FLight rain. Overcast.1 mph68%29.86 "Hg16 mi
9:00 AM67 °FPartly sunny.No wind76%29.86 "Hg16 mi
8:00 AM63 °FOvercast.No wind84%29.86 "Hg16 mi
7:00 AM61 °FScattered clouds.No wind86%29.86 "Hg16 mi
6:00 AM62 °FPassing clouds.No wind86%29.85 "Hg12 mi
5:00 AM63 °FPassing clouds.No wind84%29.86 "Hg12 mi
4:00 AM64 °FOvercast.2 mph83%29.87 "Hg12 mi
3:00 AM64 °FOvercast.No wind74%29.86 "Hg16 mi
2:00 AM66 °FPassing clouds.No wind73%29.87 "Hg19 mi
1:00 AM67 °FOvercast.No wind71%29.88 "Hg19 mi
12:00 AM69 °FOvercast.No wind64%29.88 "Hg19 mi
Weather by CustomWeather, © 2015

See weather overviewHow to use our weather pages